Location: Omaha
(41.2590°N, 95.9380°W)
Time: 13:41:50
(UTC-06:00)

OTV 5 (USA 277) - Pass Details

Date: 14 October 2017
Orbit: 404 x 417 km, 43.0° (Epoch: 07 September)

Event Time Altitude Azimuth Distance (km) Brightness Sun altitude
Rises 20:06:14 0° 269° (W) 2,353 ? -16.2°
Reaches altitude 10° 20:08:22 10° 272° (W) 1,490 ? -16.6°
Maximum altitude 20:11:43 64° 355° (N) 463 ? -17.3°
Enters shadow 20:12:30 46° 55° (NE) 570 ? -17.4°
